Volver al catálogo

CZ-6A DEB

ActivoPO
NORAD 54512·DEBRIS·🇨🇳 China

Lanzado Nov 11, 2022 desde Taiyuan Satellite Launch Center

Loading…

Próximos Pases (próximas 24 horas)

TLE

ActualizadoSource: Space-Track

Época: Sep 14, 2026, 15:34 UTC

1 54512U 22151JQ  26257.64878963  .00005159  00000-0  85504-3 0  9996
2 54512  98.5848 321.5173 0087415  10.7361 349.5682 14.68195766201346

Sigue CZ-6A DEB en tiempo real con AllMySat

Download on the App Store